Regional Weather Roundup
Issued by NWS

Home | Current Version | Previous Version | Graphics & Text | Print | Product List | Glossary Off
Versions: 1 2 3 4 5 6 7 8 9 10 11 12 13 14 15 16 17 18 19 20 21 22 23 24 25 26 27 28 29 30 31 32 33 34 35 36 37 38 39 40 41 42 43 44 45 46 47 48 49 50

000
ASUS43 KMPX 201710
RWRMN
WEATHER ROUNDUP FOR MINNESOTA
NATIONAL WEATHER SERVICE TWIN CITIES/CHANHASSEN MN
1100 AM CST SAT JAN 20 2018


NOTE: "FAIR" INDICATES FEW OR NO CLOUDS BELOW 12,000 FEET WITH NO
SIGNIFICANT WEATHER AND/OR OBSTRUCTIONS TO VISIBILITY. N/A MEANS
CURRENT SKY AND/OR WEATHER CONDITIONS ARE NOT AVAILABLE.

MNZ060>063-068>070-201800-
   Twin Cities Metro

CITY           SKY/WX    TMP DP  RH WIND       PRES   REMARKS
TWIN CITIES    FAIR      35  32  88 VRB3      29.89S
ST PAUL        FAIR      31  30  96 E3        29.90S
CRYSTAL        FAIR      37  29  72 S6        29.88R
BLAINE         PTSUNNY   39  34  81 CALM      29.88R
LAKEVILLE        N/A     34  30  86 CALM      29.89S
EDEN PRAIRIE   FAIR      35  30  82 SW6       29.89R WCI  30
SOUTH ST PAUL  FAIR      36  31  82 SE5       29.88F
LAKE ELMO      FAIR      36  32  87 S3        29.89S
$$
MNZ001>005-007-008-013>017-022>024-027-028-201800-
   Northwest Minnesota

CITY           SKY/WX    TMP DP  RH WIND       PRES   REMARKS
BEMIDJI        FAIR      27  26  97 CALM      29.80S
HALLOCK        FAIR      21  19  93 S5        29.81R WCI  15
ROSEAU         FAIR      27  21  80 SW3       29.80R
WARROAD        CLOUDY    27  25  93 SW6       29.80R WCI  20
THIEF RVR FALL FAIR      28  24  85 CALM      29.83R
CROOKSTON      FAIR      27  25  93 SW6       29.83S WCI  20
FOSSTON        FAIR      25  25 100 SW7       29.82S WCI  17
DETROIT LAKES  FAIR      28  28 100 S5        29.84R WCI  23
MOORHEAD       FAIR      30  27  86 SW5       29.86R WCI  25
PARK RAPIDS    PTSUNNY   28  28 100 CALM      29.81R
MAHNOMEN       PTSUNNY   27  26  96 S7        29.83R WCI  19
$$
MNZ006-009>011-018-025>026-201800-
   North Central Minnesota

CITY           SKY/WX    TMP DP  RH WIND       PRES   REMARKS
BAUDETTE       FAIR      29  25  85 CALM      29.79R
FLAG ISLAND    CLOUDY    30  28  93 SW5       29.78R WCI  25
INTL FALLS     PTSUNNY   31  25  78 W5        29.79R WCI  26
WASKISH        FAIR      28  25  86 W7        29.81R WCI  21
BIG FORK       FAIR      28  27  93 CALM      29.81R
LONGVILLE      FAIR      30  28  93 W3        29.82S
CRANE LAKE     FAIR      32  28  86 CALM      29.81R
ORR            FAIR      30  25  80 SW3       29.78R
COOK           CLOUDY    30  27  86 W5        29.81R WCI  25
WALKER         CLOUDY    31  27  83 SW5       29.82S WCI  26
$$
MNZ012-019>021-037-201800-
   Northeast Minnesota

CITY           SKY/WX    TMP DP  RH WIND       PRES   REMARKS
DULUTH         FAIR      35  29  78 W7        29.81S WCI  29
ELY            FAIR      30  28  93 SW7       29.79R WCI  23
HIBBING        PTSUNNY   29  28  96 CALM      29.81R
EVELETH        FAIR      28  26  91 SW5       29.83R WCI  23
DULUTH HARBOR  FAIR      34  28  80 S5        29.85S WCI  30
TWO HARBORS    FAIR      39  30  70 W8        29.80S
SILVER BAY     FAIR      37  30  75 SW3       29.79F
GRAND MARAIS     N/A     37  34  89 W8        29.81R
G MARAIS ARPRT FAIR      34  25  69 SW5       29.77R WCI  30
$$
MNZ029>031-032-039>041-046>048-054>057-064-201800-
   West Central Minnesota

CITY           SKY/WX    TMP DP  RH WIND       PRES   REMARKS
FERGUS FALLS   FAIR      28  28 100 W6        29.87R WCI  22
WHEATON        CLOUDY    37  28  70 CALM      29.90R
MORRIS         CLOUDY    37  30  75 NW8       29.87R
ALEXANDRIA     CLOUDY    34  29  82 W10       29.86R WCI  26
ELBOW LAKE     FAIR      33  30  90 NW6       29.88R FOG     WCI  27
WADENA         FAIR      28  28 100 W7        29.85R WCI  21
GLENWOOD       FAIR      34  28  80 NW9       29.87R WCI  26
APPLETON       CLOUDY    34  30  86 CALM      29.89R
BENSON         CLOUDY    34  30  86 CALM      29.89S
ORTONVILLE     CLOUDY    37  28  70 CALM      29.88S
MADISON        CLOUDY    39  32  75 W6        29.89R
WILLMAR        FAIR      34  30  86 NW3       29.91R
$$
MNZ033>034-036-042>043-049>051-058-059-201800-
   Central Minnesota

CITY           SKY/WX    TMP DP  RH WIND       PRES   REMARKS
ST CLOUD       CLOUDY    34  32  92 CALM      29.87R
SAUK CENTRE      N/A     32  29  90 CALM      29.87S
PAYNESVILLE    CLOUDY    33  32  95 CALM      29.89S
AITKIN         FAIR      30  27  86 CALM      29.83S
PINE RIVER     FAIR      28  27  93 CALM      29.87S
BRAINERD       CLOUDY    31  29  92 SW5       29.85R WCI  26
STAPLES        CLOUDY    28  28 100 CALM      29.85S
LONG PRAIRIE   FAIR      32  28  86 CALM      29.86S
LITTLE FALLS   PTSUNNY   32  28  86 CALM      29.87S
LITCHFIELD     CLOUDY    37  32  81 NW3       29.89R
BUFFALO        CLOUDY    36  31  83 W3        29.89R
MAPLE LAKE     PTSUNNY   36  32  84 MISG      29.90R
HUTCHINSON     CLOUDY    38  32  81 CALM      29.90R
$$
MNZ037-044-045-052-053-201800-
   East Central Minnesota

CITY           SKY/WX    TMP DP  RH WIND       PRES   REMARKS
PRINCETON      FAIR      34  34 100 CALM      29.88R
MORA           FAIR      32  30  93 W3        29.89R
CAMBRIDGE        N/A     34  32  93 CALM      29.88R
RUSH CITY      CLOUDY    31  28  90 CALM      29.88R
MOOSE LAKE     CLOUDY    32  28  86 CALM      29.84R
HINCKLEY       FAIR      30  30 100 CALM      29.86R
CLOQUET        FAIR      34  27  75 W5        29.82R WCI  30
MCGREGOR       CLOUDY    32  32 100 CALM      29.84S
$$
MNZ071>073-080-081-089-090-097-098-201800-
   Southwest Minnesota

CITY           SKY/WX    TMP DP  RH WIND       PRES   REMARKS
MONTEVIDEO     CLOUDY    37  32  81 CALM      29.89R
GRANITE FALLS  CLOUDY    40  33  76 SW5       29.92R
CANBY          CLOUDY    45  29  55 CALM      29.91R
MARSHALL       CLOUDY    41  29  62 SW3       29.90R
REDWOOD FALLS  CLOUDY    36  30  79 CALM      29.89R
OLIVIA         CLOUDY    36  32  87 CALM      29.89R
PIPESTONE      CLOUDY    34  30  86 CALM      29.87F
WINDOM         CLOUDY    34  19  55 CALM      29.90R
WORTHINGTON    CLOUDY    37  31  78 CALM      29.90R
JACKSON        CLOUDY    36  32  87 CALM      29.90R
TRACY          CLOUDY    38  32  77 SW3       29.89R
SLAYTON        CLOUDY    36  32  87 W3        29.90R
$$
MNZ065>067-074>077-082>085-091>093-201800-
   South Central Minnesota

CITY           SKY/WX    TMP DP  RH WIND       PRES   REMARKS
MANKATO        CLOUDY    34  31  88 W3        29.91R
NEW ULM        CLOUDY    34  28  80 CALM      29.90R
ST JAMES       CLOUDY    36  30  80 CALM      29.91R
FAIRMONT       CLOUDY    37  33  85 CALM      29.91R
GLENCOE        CLOUDY    34  34 100 SW3       29.90R
FARIBAULT      CLOUDY    30  28  93 CALM      29.90R
OWATONNA       FAIR      32  30  93 S5        29.90S WCI  27
WASECA         FAIR      32  32 100 CALM      29.92R
ALBERT LEA     FAIR      36  30  80 CALM      29.90R
$$
MNZ078>079-086>088-094>096-201800-
   Southeast Minnesota

CITY           SKY/WX    TMP DP  RH WIND       PRES   REMARKS
ROCHESTER      FAIR      33  31  92 NW5       29.89R WCI  29
RED WING       CLOUDY    30  28  93 CALM      29.90S
STANTON        PTSUNNY   33  29  88 CALM      29.89R
DODGE CENTER   FAIR      30  30 100 CALM      29.88S
WINONA         FAIR      30  28  93 CALM      29.90S
AUSTIN         FAIR      32  30  93 CALM      29.88R
PRESTON        FAIR      34  30  86 CALM      29.89S
$$
ABBREVIATIONS USED IN REMARKS
   TC - TEMPERATURES IN CELSIUS
  WCI - WIND CHILL INDEX
   HX - HEAT INDEX
  VSB - VISIBILITY
$$




USA.gov is the U.S. government's official web portal to all federal, state and local government web resources and services.